This is the latest recevied weather packets stored in our database for station/object SV6LWW-11. If no packets are shown the sender has not sent any weather packets the latest 10 day(s).
| Time | Temp. | Humidity | Pressure | Rain* | Wind** | Luminosity | Snow |
|---|---|---|---|---|---|---|---|
| 1777984183 | 19.44° C | 63% | 1025.2 hPa | - | - | - | - |
| 1777983279 | 19.44° C | 64% | 1025.2 hPa | - | - | - | - |
| 1777982379 | 19.44° C | 64% | 1025.2 hPa | - | - | - | - |
| 1777981478 | 19.44° C | 65% | 1025.5 hPa | - | - | - | - |
| 1777980578 | 19.44° C | 65% | 1025.6 hPa | - | - | - | - |
| 1777979678 | 19.44° C | 66% | 1025.6 hPa | - | - | - | - |
| 1777978777 | 19.44° C | 67% | 1025.7 hPa | - | - | - | - |
| 1777977877 | 19.44° C | 68% | 1025.9 hPa | - | - | - | - |
| 1777976977 | 19.44° C | 69% | 1026 hPa | - | - | - | - |
| 1777976081 | 19.44° C | 71% | 1026.1 hPa | - | - | - | - |
| 1777975181 | 19.44° C | 72% | 1026.3 hPa | - | - | - | - |
| 1777974281 | 19.44° C | 69% | 1026.2 hPa | - | - | - | - |
| 1777973381 | 19.44° C | 65% | 1026.4 hPa | - | - | - | - |
| 1777972481 | 19.44° C | 63% | 1026.3 hPa | - | - | - | - |
| 1777971580 | 19.44° C | 63% | 1026.4 hPa | - | - | - | - |
| 1777970680 | 19.44° C | 63% | 1026.5 hPa | - | - | - | - |
| 1777969780 | 19.44° C | 64% | 1026.6 hPa | - | - | - | - |
| 1777968880 | 19.44° C | 63% | 1026.6 hPa | - | - | - | - |
| 1777967980 | 19.44° C | 63% | 1026.6 hPa | - | - | - | - |
| 1777967080 | 19.44° C | 64% | 1026.7 hPa | - | - | - | - |
| 1777966179 | 19.44° C | 64% | 1026.8 hPa | - | - | - | - |
| 1777965279 | 19.44° C | 64% | 1026.9 hPa | - | - | - | - |
| 1777964379 | 19.44° C | 64% | 1027 hPa | - | - | - | - |
| 1777963479 | 19.44° C | 64% | 1027.1 hPa | - | - | - | - |
| 1777962579 | 19.44° C | 63% | 1026.9 hPa | - | - | - | - |
* Rain since midnight (hover to see other rain measurements)
** Current wind speed in m/s (hover to see current wind gust speed)